Find Starlink 30352

NORAD ID: 57736 Int'l Des: 2023-131 Owner: SPXS Country: US Constellation: starlink operational
LEOCIRCULAR

实时位置

正在加载3D地球...

关于 Starlink 30352

正在加载描述...

即将过境

Passes for default location (London). Set your location on the main map for personalized predictions.

高度历史

Loading altitude history...

两行轨道根数

1 57736U 23131E 26121.73008259 .00003088 00000-0 12468-3 0 9997
2 57736 43.0020 240.1096 0001273 267.8201 92.2504 15.26763806147941
Epoch: May 1, 2026 • Age: 11 hours

当前状态

高度 489.4 km
速度 7.63 km/s
星下点 42.49°N, 21.96°E
发射日期 Sep 1, 2023
运行时间 2.6 years
类型 internet

技术详情

分类 Payload
质量 730.00 kg
干质量 700.00 kg
总质量 730.00 kg
长度 0.30 m
直径 4.10 m
跨度 29.00 m
形状 Box + pan
制造商 SPXS
平台类型 Starlink V2M
阶段状态 In Orbit
所有者/国家 SPXS/US

Most Searched